Voltar ao catálogo

OPS 9311

IDSCS 1

AtivoMilitarMEO
NORAD 2215·PAYLOAD·🇺🇸 United States

Lançado Jun 16, 1966 de Cape Canaveral Space Force Station

Loading…

Próximas Passagens (próximas 24 horas)

TLE

AtualizadoSource: Space-Track

Época: Sep 13, 2026, 18:25 UTC

1 02215U 66053B   26256.76803993 -.00000084  00000-0  00000-0 0  9999
2 02215   8.8299  42.7829 0030643 225.5994 134.2308  1.07909198135321

Acompanhe OPS 9311 em tempo real com AllMySat

Download on the App Store